Latest Coastal Weather Observations for Browse Island

IDD60701

Issued at 10:51 pm CST Wednesday 1 April 2015 (issued every 10 minutes, with the page automatically refreshed every 10 minutes)

About coastal observations | Map of coastal stations | Coastal observations for NT | Marine services | Other Formats
Station Details ID: 200784 Name: BROWSE ISLAND Lat: -14.11 Lon: 123.55 Height: 3.7 m
Data from the previous 72 hours. | See also: Recent months for locations in Northern Territory
Date/Time
CST
Temp

°C
Wind Pressure Rain
since 9am
mm
Weather Cloud Vis
km
Sea
Height
m
Swell
Dir
 
Speed
knots
Gust
knots
hPa Trend Height
m
Period
s
Dir
01/10:30pm 30.2 SW 5 6 1011.0 - - - - - - - - -
01/10:00pm 30.4 SW 6 7 1010.7 - - - - - - - - -
01/09:30pm 30.5 SW 7 7 1010.5 - - - - - - - - -
01/09:00pm 30.5 SW 7 8 1010.2 - - - - - - - - -
01/08:30pm 30.5 SSW 6 7 1010.0 - - - - - - - - -
01/08:00pm 30.5 SSW 6 7 1009.9 - - - - - - - - -
01/07:30pm 30.5 SSW 6 7 1009.7 - - - - - - - - -
01/07:00pm 30.5 SSW 7 8 1009.3 - - - - - - - - -
01/06:30pm 30.5 S 7 8 1009.2 - - - - - - - - -
01/06:00pm 30.6 S 5 7 1008.9 - - - - - - - - -
01/05:30pm 30.5 S 6 8 1008.9 - - - - - - - - -
01/05:00pm 30.8 SSW 5 7 1008.7 - - - - - - - - -
01/04:30pm 30.7 S 5 7 1008.6 - - - - - - - - -
01/04:00pm 30.8 S 6 7 1008.7 - - - - - - - - -
01/03:30pm 30.6 S 7 8 1009.1 - - - - - - - - -
01/03:00pm 30.8 S 5 7 1009.6 - - - - - - - - -
01/02:30pm 30.8 S 5 6 1010.0 - - - - - - - - -
01/02:00pm 30.7 S 4 5 1010.6 - - - - - - - - -
01/01:30pm 30.5 S 4 4 1011.1 - - - - - - - - -
01/01:00pm 30.7 SSE 4 5 1011.7 - - - - - - - - -
01/12:30pm 30.6 SSE 4 6 1012.1 - - - - - - - - -
01/12:00pm 30.4 SSE 4 5 1012.7 - - - - - - - - -
01/11:30am 30.7 SW 3 4 1013.0 - - - - - - - - -
01/11:00am 30.8 SW 1 3 1013.1 - - - - - - - - -
01/10:30am 30.4 SSW 2 3 1013.3 - - - - - - - - -
01/10:00am 30.1 S 3 3 1013.2 - - - - - - - - -
01/09:30am 30.0 S 3 4 1013.0 - - - - - - - - -
01/09:00am 29.7 S 3 4 1012.8 - - - - - - - - -
01/08:30am 29.5 S 4 4 1012.6 - - - - - - - - -
01/08:00am 29.3 SSW 3 4 1012.3 - - - - - - - - -
01/07:30am 29.4 S 4 4 1012.1 - - - - - - - - -
01/07:00am 29.3 SSE 3 3 1011.7 - - - - - - - - -
01/06:30am 29.3 S 4 5 1011.6 - - - - - - - - -
01/06:00am 29.4 S 4 5 1011.4 - - - - - - - - -
01/05:30am 29.3 SSW 5 5 1011.4 - - - - - - - - -
01/05:00am 29.3 S 5 6 1011.0 - - - - - - - - -
01/04:30am 29.3 S 6 7 1010.8 - - - - - - - - -
01/04:00am 29.2 S 6 7 1010.8 - - - - - - - - -
01/03:30am 29.2 S 6 7 1010.7 - - - - - - - - -
01/03:00am 29.3 S 6 8 1010.9 - - - - - - - - -
01/02:30am 29.3 S 7 8 1011.1 - - - - - - - - -
01/02:00am 29.5 S 7 8 1011.4 - - - - - - - - -
01/01:30am 29.5 SSW 7 8 1011.7 - - - - - - - - -
01/01:00am 29.6 SSW 7 8 1011.8 - - - - - - - - -
01/12:30am 29.7 S 7 8 1012.3 - - - - - - - - -
01/12:00am 29.6 SSW 7 7 1012.5 - - - - - - - - -
 
Date/Time
CST
Temp

°C
Wind Pressure Rain
since 9am
mm
Weather Cloud Vis
km
Sea
Height
m
Swell
Dir
 
Speed
knots
Gust
knots
hPa Trend Height
m
Period
s
Dir
31/11:30pm 29.6 SSW 7 9 1012.6 - - - - - - - - -
31/11:00pm 29.8 S 8 8 1012.7 - - - - - - - - -
31/10:30pm 29.7 SSW 8 9 1012.5 - - - - - - - - -
31/10:00pm 29.7 SSW 7 8 1012.3 - - - - - - - - -
31/09:30pm 29.7 SSW 6 7 1012.0 - - - - - - - - -
31/09:00pm 29.7 S 6 7 1011.7 - - - - - - - - -
31/08:30pm 29.5 S 6 7 1011.3 - - - - - - - - -
31/08:00pm 29.7 S 5 6 1011.0 - - - - - - - - -
31/07:30pm 29.6 S 6 7 1010.8 - - - - - - - - -
31/07:00pm 29.9 SSE 8 9 1010.6 - - - - - - - - -
31/06:30pm 29.9 SSE 8 9 1010.5 - - - - - - - - -
31/06:00pm 29.9 S 9 11 1010.5 - - - - - - - - -
31/05:30pm 30.1 S 7 9 1010.6 - - - - - - - - -
31/05:00pm 30.2 S 8 10 1010.5 - - - - - - - - -
31/04:30pm 30.0 SSE 8 10 1010.5 - - - - - - - - -
31/04:00pm 30.3 SSE 8 10 1010.5 - - - - - - - - -
31/03:30pm 30.0 S 7 9 1010.7 - - - - - - - - -
31/03:00pm 30.3 SSE 7 8 1011.0 - - - - - - - - -
31/02:30pm 30.0 S 7 9 1011.4 - - - - - - - - -
31/02:00pm 30.4 SE 7 8 1011.9 - - - - - - - - -
31/01:30pm 30.2 SSE 8 9 1012.3 - - - - - - - - -
31/01:00pm 29.9 SSE 7 10 1012.7 - - - - - - - - -
31/12:30pm 30.1 SSE 7 9 1013.3 - - - - - - - - -
31/12:00pm 30.3 SSE 8 9 1013.7 - - - - - - - - -
31/11:30am 29.9 SE 8 9 1014.0 - - - - - - - - -
31/11:00am 29.7 SSE 8 9 1014.1 - - - - - - - - -
31/10:30am 30.0 SSE 8 11 1014.1 - - - - - - - - -
31/10:00am 29.6 SSE 8 11 1014.0 - - - - - - - - -
31/09:30am 29.6 SSE 8 10 1013.9 - - - - - - - - -
31/09:00am 29.2 SSE 9 10 1013.6 - - - - - - - - -
31/08:30am 29.1 SSE 7 9 1013.3 - - - - - - - - -
31/08:00am 29.0 SSE 7 8 1012.9 - - - - - - - - -
31/07:30am 29.0 SSE 7 8 1012.6 - - - - - - - - -
31/07:00am 29.0 S 6 8 1012.1 - - - - - - - - -
31/06:30am 28.9 S 5 6 1011.6 - - - - - - - - -
31/06:00am 29.1 S 5 6 1011.2 - - - - - - - - -
31/05:30am 29.0 S 5 6 1011.0 - - - - - - - - -
31/05:00am 29.1 SE 4 5 1010.9 - - - - - - - - -
31/04:30am 29.1 SSE 5 6 1010.9 - - - - - - - - -
31/04:00am 29.1 SSE 5 6 1011.0 - - - - - - - - -
31/03:30am 29.0 S 4 6 1011.1 - - - - - - - - -
31/03:00am 29.0 SSE 5 6 1011.5 - - - - - - - - -
31/02:30am 29.1 S 6 7 1011.8 - - - - - - - - -
31/02:00am 29.1 S 6 7 1012.1 - - - - - - - - -
31/01:30am 29.1 SSE 5 6 1012.4 - - - - - - - - -
31/01:00am 29.2 S 5 7 1012.6 - - - - - - - - -
31/12:30am 29.2 SSE 5 6 1012.9 - - - - - - - - -
31/12:00am 29.2 SSE 5 6 1013.0 - - - - - - - - -
 
Date/Time
CST
Temp

°C
Wind Pressure Rain
since 9am
mm
Weather Cloud Vis
km
Sea
Height
m
Swell
Dir
 
Speed
knots
Gust
knots
hPa Trend Height
m
Period
s
Dir
30/11:30pm 29.2 SSE 6 7 1013.2 - - - - - - - - -
30/11:00pm 29.2 SSE 6 7 1013.2 - - - - - - - - -
30/10:30pm 29.1 SSE 5 6 1013.3 - - - - - - - - -
30/10:00pm 29.2 S 6 7 1013.2 - - - - - - - - -
30/09:30pm 29.2 SE 5 6 1013.0 - - - - - - - - -
30/09:00pm 29.1 SSE 3 5 1012.6 - - - - - - - - -
30/08:30pm 29.2 SSE 4 5 1012.1 - - - - - - - - -
30/08:00pm 29.1 SE 1 4 1011.7 - - - - - - - - -
30/07:30pm 29.2 SE 3 4 1011.4 - - - - - - - - -
30/07:00pm 29.5 ESE 4 5 1011.1 - - - - - - - - -
30/06:30pm 29.5 ESE 4 6 1011.1 - - - - - - - - -
30/06:00pm 29.6 ESE 5 7 1011.0 - - - - - - - - -
30/05:30pm 30.0 ESE 5 7 1010.8 - - - - - - - - -
30/05:00pm 30.0 SE 5 7 1010.7 - - - - - - - - -
30/04:30pm 29.9 SSE 5 7 1010.8 - - - - - - - - -
30/04:00pm 29.7 SSE 6 8 1011.0 - - - - - - - - -
30/03:30pm 30.3 SE 6 9 1011.1 - - - - - - - - -
30/03:00pm 30.0 SE 7 9 1011.2 - - - - - - - - -
30/02:30pm 29.7 SSE 6 8 1011.5 - - - - - - - - -
30/02:00pm 30.3 SE 7 8 1011.9 - - - - - - - - -
30/01:30pm 29.6 SE 7 8 1012.3 - - - - - - - - -
30/01:00pm 29.7 SE 7 9 1012.7 - - - - - - - - -
30/12:30pm 30.0 SE 6 8 1013.1 - - - - - - - - -
30/12:00pm 29.4 SE 7 9 1013.3 - - - - - - - - -
30/11:30am 29.5 SE 7 9 1013.4 - - - - - - - - -
30/11:00am 29.4 ESE 7 8 1013.5 - - - - - - - - -
30/10:30am 29.1 ESE 8 9 1013.5 - - - - - - - - -
30/10:00am 29.5 ESE 8 10 1013.4 - - - - - - - - -
30/09:30am 29.3 ESE 8 9 1013.2 - - - - - - - - -
30/09:00am 29.0 ESE 7 8 1012.8 - - - - - - - - -
30/08:30am 28.8 SE 8 10 1012.8 - - - - - - - - -
30/08:00am 28.7 SE 8 10 1012.5 - - - - - - - - -
30/07:30am 28.5 SE 7 8 1012.1 - - - - - - - - -
30/07:00am 28.5 SE 7 8 1011.7 - - - - - - - - -
30/06:30am 28.6 SE 6 7 1011.5 - - - - - - - - -
30/06:00am 28.6 CALM 0 0 1011.1 - - - - - - - - -
30/05:30am 28.5 CALM 0 0 1010.9 - - - - - - - - -
30/05:00am 28.5 CALM 0 0 1010.8 - - - - - - - - -
30/04:30am 28.7 ESE 3 4 1010.9 - - - - - - - - -
30/04:00am 28.7 ESE 4 5 1010.9 - - - - - - - - -
30/03:30am 28.6 E 4 5 1010.9 - - - - - - - - -
30/03:00am 28.7 ENE 5 6 1011.1 - - - - - - - - -
30/02:30am 28.8 NE 5 7 1011.3 - - - - - - - - -
30/02:00am 28.8 NNE 7 9 1011.4 - - - - - - - - -
30/01:30am 28.9 NNE 6 9 1011.9 - - - - - - - - -
30/01:00am 28.9 NNE 7 8 1012.0 - - - - - - - - -
30/12:30am 29.1 NNE 7 9 1012.3 - - - - - - - - -

Other Formats:

Comma delimited format used in spreadsheet applications
http://www.bom.gov.au/fwo/IDD60701/IDD60701.94103.axf

JavaScript Object Notation format (JSON) in row-major order
http://www.bom.gov.au/fwo/IDD60701/IDD60701.94103.json